This is the latest recevied weather packets stored in our database for station/object KE8GJZ-1. If no packets are shown the sender has not sent any weather packets the latest 10 day(s).
| Time | Temp. | Humidity | Pressure | Rain* | Wind** | Luminosity | Snow |
|---|---|---|---|---|---|---|---|
| 1778038157 | 8.33° C | 64% | 1007 hPa | 0 mm | - | 0 W/m² | - |
| 1778037854 | 8.33° C | 65% | 1006.9 hPa | 0 mm | - | 0 W/m² | - |
| 1778037550 | 8.33° C | 64% | 1007 hPa | 0 mm | - | 0 W/m² | - |
| 1778037248 | 8.33° C | 65% | 1007.1 hPa | 0 mm | - | 0 W/m² | - |
| 1778036945 | 8.89° C | 66% | 1007 hPa | 0 mm | - | 0 W/m² | - |
| 1778036643 | 8.89° C | 62% | 1007.1 hPa | 0 mm | - | 0 W/m² | - |
| 1778036340 | 8.89° C | 64% | 1007.2 hPa | 0 mm | - | 0 W/m² | - |
| 1778036037 | 8.89° C | 61% | 1007.1 hPa | 0 mm | - | 0 W/m² | - |
| 1778035734 | 8.89° C | 61% | 1006.8 hPa | 0 mm | - | 0 W/m² | - |
| 1778035431 | 8.89° C | 62% | 1006.8 hPa | 0 mm | - | 0 W/m² | - |
| 1778035126 | 8.89° C | 61% | 1007.2 hPa | 0 mm | - | 0 W/m² | - |
| 1778034824 | 8.89° C | 61% | 1007.2 hPa | 0 mm | - | 0 W/m² | - |
| 1778034520 | 8.89° C | 63% | 1007.2 hPa | 0 mm | - | 0 W/m² | - |
| 1778034218 | 8.89° C | 62% | 1007.1 hPa | 0 mm | - | 0 W/m² | - |
| 1778033916 | 8.89° C | 61% | 1007 hPa | 0 mm | - | 0 W/m² | - |
| 1778033613 | 8.89° C | 62% | 1006.8 hPa | 0 mm | - | 0 W/m² | - |
| 1778033309 | 8.89° C | 63% | 1006.8 hPa | 0 mm | - | 0 W/m² | - |
| 1778033007 | 8.89° C | 60% | 1006.8 hPa | 0 mm | - | 0 W/m² | - |
| 1778032705 | 8.89° C | 60% | 1006.9 hPa | 0 mm | - | 0 W/m² | - |
| 1778032402 | 8.89° C | 59% | 1006.8 hPa | 0 mm | - | 0 W/m² | - |
| 1778032098 | 8.89° C | 60% | 1006.9 hPa | 0 mm | - | 0 W/m² | - |
| 1778031795 | 8.89° C | 59% | 1006.7 hPa | 0 mm | - | 0 W/m² | - |
| 1778031492 | 9.44° C | 59% | 1006.8 hPa | 0 mm | - | 0 W/m² | - |
| 1778031189 | 9.44° C | 58% | 1006.5 hPa | 0 mm | - | 0 W/m² | - |
| 1778030886 | 9.44° C | 59% | 1006.7 hPa | 0 mm | - | 0 W/m² | - |
* Rain latest hour (hover to see other rain measurements)
** Current wind speed in m/s (hover to see current wind gust speed)